Regional Weather Roundup
Issued by NWS

Home | Current Version | Previous Version | Graphics & Text | Print | Product List | Glossary On
Versions: 1 2 3 4 5 6 7 8 9 10 11 12 13 14 15 16 17 18 19 20 21 22 23 24 25 26 27 28 29 30 31 32 33 34 35 36 37 38 39 40 41 42 43 44 45 46 47 48 49 50
000
ASUS43 KMKX 271321
RWRWI

WISCONSIN REGIONAL WEATHER ROUNDUP
NATIONAL WEATHER SERVICE MILWAUKEE/SULLIVAN WI
800 AM CDT MON MAR 27 2017

NOTE: "FAIR" INDICATES FEW OR NO CLOUDS BELOW 12,000 FEET WITH NO
SIGNIFICANT WEATHER AND/OR OBSTRUCTIONS TO VISIBILITY.

WIZ001-002-006>008-014>016-023>028-271400-
NORTHWEST WISCONSIN

CITY           SKY/WX    TMP DP  RH WIND       PRES   REMARKS
SUPERIOR ARPT  CLOUDY    32  32 100 SW5       29.97R FOG     WCI  27
ASHLAND        CLOUDY    33  32  96 CALM      29.97S
HAYWARD        CLOUDY    35  32  88 CALM      29.95R
SIREN          FOG       32  32  99 CALM      29.97R VSB 3/4
CUMBERLAND     CLOUDY    34  32  93 CALM      29.95R
RICE LAKE      CLOUDY    35  34  98 CALM      29.97R
CHETEK         CLOUDY    35  34  99 CALM      29.96R
LADYSMITH      DRIZZLE   34  33  97 CALM      29.97R
EAU CLAIRE     CLOUDY    37  35  92 CALM      29.95R
MENOMONIE      CLOUDY    37  35  92 NW3       29.96F
NEW RICHMOND   CLOUDY    35  35 100 CALM      29.97S
OSCEOLA        CLOUDY    36  36 100 CALM      30.00R
$$

WIZ003>005-009-010-017-018-271400-
NORTH CENTRAL WISCONSIN

CITY           SKY/WX    TMP DP  RH WIND       PRES   REMARKS
MANITOWISH WTR CLOUDY    31  31 100 N3        29.91S FOG
ARBOR VITAE    CLOUDY    34  33  96 NE3       29.90S FOG
WOODRUFF       CLOUDY    34  33  96 NE3       29.90S FOG
RHINELANDER    CLOUDY    34  34 100 CALM      29.92R
EAGLE RIVER    CLOUDY    32  32 100 N5        29.91R FOG     WCI  27
LAND O LAKES   CLOUDY    32  32 100 N6        29.92F FOG     WCI  26
PHILLIPS       CLOUDY    32  32 100 N5        29.92R WCI  27
TOMAHAWK       CLOUDY    32  32  99 CALM      29.92R
MEDFORD        CLOUDY    33  32  96 NW5       29.92R WCI  28
MERRILL        CLOUDY    34  34 100 CALM      29.93R
$$

WIZ029-030-035-036-043>047-271400-
CENTRAL WISCONSIN

CITY           SKY/WX    TMP DP  RH WIND       PRES   REMARKS
WAUSAU         CLOUDY    35  33  92 N3        29.91R
MOSINEE        PTSUNNY   36  36 100 NW5       29.93R WCI  32
MARSHFIELD     CLOUDY    36  34  92 N3        29.91F
STEVENS POINT  CLOUDY    36  36 100 NW3       29.94R
WAUPACA        CLOUDY    41  40  97 CALM      29.94R FOG
WAUTOMA        CLOUDY    39  39 100 CALM      29.94S FOG
WISC RAPIDS    CLOUDY    39  39 100 N5        29.94R
CAMP DOUGLAS   CLOUDY    41  39  93 CALM      29.93R
$$

WIZ011>013-019>022-031-037>040-048>050-271400-
NORTHEAST WISCONSIN

CITY           SKY/WX    TMP DP  RH WIND       PRES   REMARKS
ANTIGO         CLOUDY    33  33  99 N6        29.92R WCI  28
SHAWANO        CLOUDY    39  37  93 N5        29.94R
OCONTO         CLOUDY    37  35  93 N5        29.92S WCI  33
STURGEON BAY   LGT RAIN  36  36 100 N6        29.96R FOG     WCI  31
GREEN BAY      CLOUDY    39  39 100 CALM      29.93R
MANITOWOC      CLOUDY    39  37  93 N7        29.94R WCI  34
APPLETON       CLOUDY    37  37 100 VRB3      29.91R FOG
CLINTONVILLE   CLOUDY    37  37 100 N5        29.93R WCI  34
OSHKOSH        CLOUDY    39  38  96 W5        29.93R
$$

WIZ032>034-041-042-053>061-271400-
SOUTHWEST WISCONSIN

CITY           SKY/WX    TMP DP  RH WIND       PRES   REMARKS
LA CROSSE      FOG       42  41  96 CALM      29.95R VSB 1
SPARTA         CLOUDY    39  39 100 CALM      29.95S FOG
VIROQUA        CLOUDY    39  39 100 N3        29.93S VSB 3/4
BOSCOBEL       CLOUDY    43  41  93 CALM      29.94F FOG
PRAIRIE DU CHI CLOUDY    41  40  96 CALM      29.95S FOG
PLATTEVILLE    CLOUDY    41  41 100 N6        29.94S
$$

WIZ056-057-062-063-064-067-068-271400-
SOUTH CENTRAL WISCONSIN

CITY           SKY/WX    TMP DP  RH WIND       PRES   REMARKS
REEDSBURG      CLOUDY    40  40 100 CALM      29.94S FOG
BARABOO/DELLS  CLOUDY    40  39  99 CALM      29.94R FOG
LONE ROCK      CLOUDY    42  40  92 CALM      29.95S FOG
MINERAL POINT  CLOUDY    43  43 100 N5        29.93S FOG
MADISON        CLOUDY    41  39  93 NW3       29.94R
MIDDLETON      CLOUDY    42  42 100 NW6       29.94R
WATERTOWN      CLOUDY    40  40 100 CALM      29.93R FOG
MONROE         CLOUDY    41  41 100 CALM      29.93R FOG
JANESVILLE     CLOUDY    45  43  93 CALM      29.94R
$$

WIZ051-052-058>065-066-070>072-271400-
SOUTHEAST WISCONSIN

CITY           SKY/WX    TMP DP  RH WIND       PRES   REMARKS
MILWAUKEE      CLOUDY    43  40  89 W3        29.94R
WAUKESHA       CLOUDY    37  37 100 CALM      29.93R FOG
MILWAUKEE/TIMM CLOUDY    39  37  93 CALM      29.94R
RACINE         CLOUDY    43  38  82 W3        29.96R
KENOSHA        CLOUDY    43  41  93 CALM      29.94R
FOND DU LAC    CLOUDY    40  37  89 NW3       29.93R FOG
SHEBOYGAN      CLOUDY    39  36  89 CALM      29.93R
WEST BEND      CLOUDY    39  39 100 CALM      29.93R
JUNEAU         CLOUDY    39  38  99 CALM      29.95R FOG
$$

LSZ147-162-271400-
LAKE SUPERIOR

STATION/POSITION TIME  TEMP    WIND        PRES    WAVE
                       AIR SEA DIR/SP/G            HT/PER
                 (UTC) (F)     (DEG/KT/KT) (MB)    (FT/S)
DEVILS ISLAND    1200   33     230/  9/ 10 1015.2R
PORT WING        1240   33     230/  3/  5 1015.2R
SAXON HARBOR     1240   33      CALM  /  1 1014.2F
$$

LMZ867-665-643>646-271400-
LAKE MICHIGAN

STATION/POSITION TIME  TEMP    WIND        PRES    WAVE
                       AIR SEA DIR/SP/G            HT/PER
                 (UTC) (F)     (DEG/KT/KT) (MB)    (FT/S)
CHAMBERS ISLAND  1240   34     310/  4/  5 1012.9F
NORTHPORT PIER   1240   34     300/  7/ 12 1013.2S
KEWAUNEE LAKESHO 1254   37     350/  3/  8 1012.4F
SHEBOYGAN LAKESH 1300   38        CALM     1014.0R
PORT WASHINGTON  1240   41     340/  2/  4 1014.2R
MILWAUKEE LAKESH 1300   42     310/  2/  3   N/A
KENOSHA   LAKESH 1300   43      CALM  /  1 1014.2
$$

TC  - TEMPERATURE IN CELSIUS
VSB - VISIBILITY IN STATUTE MILES
WCI - WIND CHILL INDEX
HX  - HEAT INDEX





USA.gov is the U.S. government's official web portal to all federal, state and local government web resources and services.